"Time","Temp","Dewpoint","Humidity","Pressure","Direction","Speed","Gust","Precip","PrecipRate"
"00:04:57","29","21.7","74","30.68","151","1","3.5","0.00","0.00"
"00:09:58","29","21.7","74","30.68","150","0.8","3.5","0.00","0.00"
"00:14:57","29","21.7","74","30.68","150","0.9","2.3","0.00","0.00"
"00:19:59","29","21.7","74","30.68","150","0.9","2.3","0.00","0.00"
"00:24:57","29","21.7","74","30.68","151","1.1","3.5","0.00","0.00"
"00:29:59","28.9","21.7","74","30.68","148","0.9","3.5","0.00","0.00"
"00:34:57","28.9","21.7","74","30.68","148","1.3","3.5","0.00","0.00"
"00:39:56","28.9","21.7","74","30.68","148","0.9","3.5","0.00","0.00"
"00:44:58","28.8","21.7","74.4","30.68","148","0.4","3.5","0.00","0.00"
"00:49:56","28.8","21.9","75","30.68","148","0.4","2.3","0.00","0.00"
"00:54:58","28.8","21.9","75","30.68","148","0.9","3.5","0.00","0.00"
"00:59:56","28.8","21.8","74.8","30.68","148","0.3","2.3","0.00","0.00"
"01:04:57","28.8","21.7","74.6","30.68","148","0.5","2.3","0.00","0.00"
"01:09:55","28.7","21.7","74.7","30.68","148","0.7","2.3","0.00","0.00"
"01:14:58","28.6","21.7","75","30.68","148","0.6","3","0.00","0.00"
"01:19:57","28.4","21.5","75","30.68","148","0.6","3.5","0.00","0.00"
"01:24:58","28.3","21.4","75","30.68","148","0","1.2","0.00","0.00"
"01:29:56","28.2","21.3","75","30.68","148","0","0","0.00","0.00"
"01:34:58","28","21.4","75.9","30.68","148","0","0","0.00","0.00"
"01:39:56","27.9","21.3","76","30.68","148","0.7","3.5","0.00","0.00"
"01:44:58","27.7","21.2","76.5","30.69","148","0.3","2.3","0.00","0.00"
"01:49:56","27.5","21.2","76.9","30.69","148","0.3","2.3","0.00","0.00"
"01:54:58","27.5","21.3","77.5","30.69","149","1.1","4","0.00","0.00"
"01:59:56","27.6","21.4","77.4","30.69","151","1.8","3.5","0.00","0.00"
"02:04:58","27.6","21.3","77","30.68","157","1.6","4","0.00","0.00"
"02:09:57","27.7","21.4","77","30.68","156","0.9","3.5","0.00","0.00"
"02:14:59","27.6","21.3","77","30.68","158","1","4","0.00","0.00"
"02:19:57","27.6","21.3","77","30.68","157","1.9","5","0.00","0.00"
"02:24:59","27.7","21.6","77.8","30.68","146","2.1","4","0.00","0.00"
"02:29:57","27.8","21.5","77","30.68","138","2","4","0.00","0.00"
"02:34:59","27.9","21.6","77","30.68","163","2.4","6","0.00","0.00"
"02:39:57","27.9","21.6","77","30.68","144","2.1","4","0.00","0.00"
"02:44:59","27.9","21.6","77","30.68","156","1.5","4","0.00","0.00"
"02:49:57","27.8","21.5","77","30.67","159","2.2","5","0.00","0.00"
"02:54:59","27.8","21.5","77","30.67","147","1.7","5","0.00","0.00"
"02:59:57","27.7","21.7","78","30.67","156","2.2","4","0.00","0.00"
"03:04:59","27.6","21.6","77.8","30.66","152","2.2","5","0.00","0.00"
"03:09:57","27.6","21.6","78","30.66","152","2.7","5","0.00","0.00"
"03:14:59","27.6","21.6","78","30.66","151","2.2","4.6","0.00","0.00"
"03:19:57","27.6","21.6","78","30.66","165","2","4","0.00","0.00"
"03:24:56","27.5","21.5","78","30.66","151","1.2","4","0.00","0.00"
"03:29:58","27.4","21.4","78","30.66","163","1.6","6","0.00","0.00"
"03:34:56","27.4","21.6","78.9","30.66","134","2","4","0.00","0.00"
"03:39:58","27.4","21.7","79","30.66","159","1.7","6","0.00","0.00"
"03:44:56","27.3","21.6","79","30.66","141","1.6","4","0.00","0.00"
"03:49:58","27.3","21.6","79","30.64","134","1.2","3.5","0.00","0.00"
"03:54:56","27.2","21.5","79","30.64","143","1.7","4","0.00","0.00"
"03:59:58","27.2","21.5","79","30.65","149","1.7","4","0.00","0.00"
"04:04:56","27.2","21.5","79","30.65","167","1.8","6","0.00","0.00"
"04:09:57","27.2","21.5","79","30.65","170","1.5","5.8","0.00","0.00"
"04:14:56","27.1","21.6","79.4","30.65","150","1.8","4","0.00","0.00"
"04:19:58","27.2","21.8","79.9","30.65","153","1.4","4","0.00","0.00"
"04:24:56","27.2","21.7","79.7","30.65","160","1.3","3.5","0.00","0.00"
"04:29:58","27.1","21.7","80","30.66","140","1.1","4","0.00","0.00"
"04:34:56","27.1","21.7","80","30.66","135","1.1","3.5","0.00","0.00"
"04:39:59","27","21.7","80","30.66","135","1.6","4","0.00","0.00"
"04:44:57","26.9","21.6","80","30.66","136","1.6","4","0.00","0.00"
"04:49:59","26.9","21.6","80","30.66","136","1.6","4","0.00","0.00"
"04:54:57","26.9","21.7","80.3","30.66","152","1.7","5","0.00","0.00"
"04:59:56","26.9","21.8","80.8","30.66","149","1.5","3.5","0.00","0.00"
"05:04:57","26.8","21.8","81","30.66","142","1.4","4","0.00","0.00"
"05:09:59","26.7","21.7","81","30.66","156","1.8","4","0.00","0.00"
"05:14:57","26.7","21.7","81","30.66","144","1.3","3.5","0.00","0.00"
"05:19:56","26.6","21.6","81","30.66","151","1.5","4","0.00","0.00"
"05:24:58","26.6","21.6","81","30.66","163","1.3","3.5","0.00","0.00"
"05:29:56","26.5","21.5","81","30.66","163","0.7","2.3","0.00","0.00"
"05:34:58","26.5","21.5","81","30.66","165","1.6","4","0.00","0.00"
"05:39:56","26.5","21.5","81","30.66","167","0.8","3.5","0.00","0.00"
"05:44:58","26.5","21.5","81","30.67","166","1.8","4","0.00","0.00"
"05:49:57","26.5","21.5","81","30.67","162","0.6","3.5","0.00","0.00"
"05:54:59","26.4","21.5","81.3","30.67","138","1.7","4","0.00","0.00"
"05:59:57","26.4","21.7","82","30.67","162","1.2","3.5","0.00","0.00"
"06:04:58","26.3","21.6","82","30.66","135","1.4","3.5","0.00","0.00"
"06:09:57","26.4","21.7","82","30.66","136","1.9","4","0.00","0.00"
"06:14:59","26.5","21.7","82","30.66","127","1.7","3.5","0.00","0.00"
"06:19:57","26.5","21.7","82","30.66","129","1.3","3.5","0.00","0.00"
"06:24:56","26.6","21.8","82","30.66","147","1.9","5","0.00","0.00"
"06:29:58","26.7","21.9","82","30.67","148","1.4","3.5","0.00","0.00"
"06:34:57","26.6","21.8","82","30.67","153","0.3","3","0.00","0.00"
"06:39:59","26.6","21.8","82","30.67","140","2.1","5","0.00","0.00"
"06:44:57","26.7","21.9","82","30.67","128","1.5","3.5","0.00","0.00"
"06:49:59","26.7","21.9","82","30.67","125","1.7","4","0.00","0.00"
"06:54:58","26.8","22","82","30.67","127","2","4","0.00","0.00"
"06:59:59","26.9","22.1","82","30.67","125","1.3","3.5","0.00","0.00"
"07:04:57","27","22.2","82","30.67","122","1.2","4","0.00","0.00"
"07:09:59","27.1","22.3","82","30.67","119","1","3.5","0.00","0.00"
"07:14:58","27.1","22.3","82","30.68","125","1","3.5","0.00","0.00"
"07:19:56","27.1","22.3","82","30.68","165","1","3.5","0.00","0.00"
"07:24:58","27.1","22.3","82","30.68","165","0.5","2.3","0.00","0.00"
"07:29:56","27.2","22.4","82","30.68","165","0.8","3.5","0.00","0.00"
"07:34:58","27.3","22.5","82","30.68","165","0.2","2.3","0.00","0.00"
"07:39:56","27.4","22.6","82","30.68","165","0.3","2.3","0.00","0.00"
"07:44:58","27.4","22.6","82","30.68","161","1.3","3","0.00","0.00"
"07:49:56","27.6","22.8","82","30.68","143","1.2","3.5","0.00","0.00"
"07:54:58","27.8","23","82","30.68","154","1.3","3.5","0.00","0.00"
"07:59:56","28","23.2","82","30.68","152","1.6","4","0.00","0.00"
"08:04:57","28.3","23.5","82","30.68","135","1.4","3.5","0.00","0.00"
"08:09:59","28.6","23.6","81.4","30.68","127","2.5","6","0.00","0.00"
"08:14:57","28.9","23.8","81","30.69","127","2.5","5.8","0.00","0.00"
"08:19:59","29.2","23.9","80.2","30.69","112","2.2","6","0.00","0.00"
"08:24:57","29.5","24.1","80","30.69","153","2.3","5","0.00","0.00"
"08:29:59","30","24.6","80","30.69","148","2.3","6","0.00","0.00"
"08:34:56","30.4","24.9","79.4","30.68","167","3.3","10.4","0.00","0.00"
"08:39:58","31.1","25.3","78.8","30.68","152","2.5","6","0.00","0.00"
"08:44:59","31.7","25.7","78","30.68","163","3.4","10","0.00","0.00"
"08:49:57","32.2","25.8","77","30.68","166","3.8","9","0.00","0.00"
"08:54:59","32.6","26.1","76.4","30.68","165","3.5","9.2","0.00","0.00"
"08:59:57","33.1","26.4","76","30.68","144","3.1","5","0.00","0.00"
"09:04:58","33.6","26.7","75.8","30.68","163","2.8","7","0.00","0.00"
"09:09:59","34","26.9","75.1","30.68","182","4.3","9.2","0.00","0.00"
"09:14:58","34.3","27","74.5","30.68","154","4.1","7","0.00","0.00"
"09:19:59","34.9","27.5","74.2","30.68","167","4.3","11.5","0.00","0.00"
"09:24:57","35.5","27.9","73.7","30.68","170","4.1","11.5","0.00","0.00"
"09:29:58","36","28.2","73","30.68","180","5.1","12","0.00","0.00"
"09:34:56","36.3","28.5","73.1","30.67","186","4.4","11","0.00","0.00"
"09:39:58","36.6","28.3","71.8","30.67","171","4.7","14","0.00","0.00"
"09:44:59","37","28.3","70.7","30.67","179","5.1","12.7","0.00","0.00"
"09:49:57","37.5","29.1","71.3","30.67","190","3.8","7","0.00","0.00"
"09:54:59","38.1","29.2","70","30.67","169","4.2","15","0.00","0.00"
"09:59:58","38.8","28.9","67.3","30.67","184","5.1","12","0.00","0.00"
"10:04:59","39.3","28.6","65.4","30.67","180","5.8","10.4","0.00","0.00"
"10:09:57","39.7","29","65.2","30.67","195","5.7","14","0.00","0.00"
"10:14:58","40.1","29","64.2","30.67","189","5.6","13.8","0.00","0.00"
"10:19:56","40.4","29.1","63.8","30.67","199","5.3","13","0.00","0.00"
"10:24:57","40.5","29.2","63.8","30.67","198","7.2","16.1","0.00","0.00"
"10:29:59","40.8","29.8","64.5","30.67","210","5.3","10.4","0.00","0.00"
"10:34:57","41.4","30.1","64","30.66","210","5.8","13","0.00","0.00"
"10:39:59","41.8","30.3","63.5","30.66","194","4.9","10.4","0.00","0.00"
"10:44:56","42.3","30.1","61.6","30.66","163","4.9","12","0.00","0.00"
"10:49:58","42.9","30.1","60.2","30.65","186","5.5","19","0.00","0.00"
"10:54:59","43.3","28.8","56.3","30.65","165","4.9","19.6","0.00","0.00"
"10:59:57","43.6","29.7","57.6","30.65","177","4.5","10.4","0.00","0.00"
"11:04:58","44.3","29.6","56.1","30.64","185","6.5","14","0.00","0.00"
"11:09:56","44.3","29.1","55","30.64","194","7.5","14","0.00","0.00"
"11:14:58","44.3","28.7","54.2","30.64","189","7","16","0.00","0.00"
"11:19:59","44.4","28.9","54.2","30.63","155","5.9","16.1","0.00","0.00"
"11:24:56","44.8","29.8","55.4","30.63","206","5.3","12","0.00","0.00"
"11:29:58","45.3","29.9","54.5","30.63","158","5.3","12","0.00","0.00"
"11:34:56","45.4","30.4","55.5","30.62","176","4","8","0.00","0.00"
"11:39:57","45.8","30.3","54.7","30.62","178","6","12","0.00","0.00"
"11:44:59","46","30.3","54.1","30.62","193","6.6","21","0.00","0.00"
"11:49:57","46.1","30.5","54.3","30.62","195","7.5","15","0.00","0.00"
"11:54:59","46.1","30.5","54.2","30.62","195","6","11.5","0.00","0.00"
"11:59:56","46.5","31","54.5","30.62","200","5.4","11.5","0.00","0.00"
"12:04:57","47.1","30.9","53.3","30.61","195","6.6","13","0.00","0.00"
"12:09:59","47.3","30.6","52.1","30.61","173","5.1","12.7","0.00","0.00"
"12:14:57","47.3","30.3","51.5","30.61","169","4.6","15","0.00","0.00"
"12:19:58","47.2","30.3","51.7","30.60","170","5.3","15","0.00","0.00"
"12:24:56","47.4","30.8","52.4","30.60","171","5.7","14","0.00","0.00"
"12:29:57","47.6","30.8","52.1","30.60","192","5.6","13.8","0.00","0.00"
"12:34:59","47.9","31","51.9","30.58","179","5.9","12.7","0.00","0.00"
"12:39:57","48.3","30.8","50.7","30.58","187","6.7","13","0.00","0.00"
"12:44:58","48.7","31","50.1","30.58","188","7.1","15","0.00","0.00"
"12:49:56","49.1","31","49.6","30.57","186","8.1","18.4","0.00","0.00"
"12:54:58","49.1","30.7","49","30.57","162","6","15","0.00","0.00"
"12:59:59","49.4","31.4","49.7","30.57","180","5","10","0.00","0.00"
"13:04:56","49.9","31.9","49.6","30.56","180","5.5","15","0.00","0.00"
"13:09:58","50.4","31.6","48.5","30.56","180","6.6","15","0.00","0.00"
"13:14:56","50.5","31.2","47.3","30.56","177","7.8","18.4","0.00","0.00"
"13:19:58","50.4","31.6","48.5","30.54","198","7.6","16.1","0.00","0.00"
"13:24:56","50.7","32","48.7","30.54","192","5.6","11.5","0.00","0.00"
"13:29:57","50.9","31.6","47.5","30.54","176","5.2","11.5","0.00","0.00"
"13:34:59","50.7","32.1","48.7","30.53","203","7.3","15","0.00","0.00"
"13:39:57","51","32.5","49","30.53","184","4.2","10.4","0.00","0.00"
"13:44:58","51.7","32.7","48.2","30.53","196","6.7","15","0.00","0.00"
"13:49:56","52","32.8","47.8","30.53","196","7.4","14","0.00","0.00"
"13:54:58","52.1","32.8","47.5","30.53","190","5.9","12","0.00","0.00"
"13:59:56","52.1","32.7","47.4","30.53","197","6.3","12","0.00","0.00"
"14:04:56","52.2","33.1","48.1","30.52","201","6","12","0.00","0.00"
"14:09:58","52.3","32.9","47.4","30.52","192","6.8","13","0.00","0.00"
"14:14:56","52.1","32.8","47.7","30.52","182","6.2","12.7","0.00","0.00"
"14:19:58","52.1","32.8","47.5","30.51","182","6.1","14","0.00","0.00"
"14:24:56","52","32.5","47.2","30.51","171","4.7","11","0.00","0.00"
"14:29:56","51.9","32.4","47.2","30.51","178","6.5","16","0.00","0.00"
"14:34:57","51.7","32.9","48.7","30.50","189","8.2","18.4","0.00","0.00"
"14:39:59","51.7","33.5","49.8","30.50","199","7","13","0.00","0.00"
"14:44:57","51.7","33.6","50","30.50","192","5.2","11.5","0.00","0.00"
"14:49:59","51.7","33.4","49.6","30.49","205","7.7","13","0.00","0.00"
"14:54:57","51.6","33","49","30.49","185","6","13","0.00","0.00"
"14:59:59","51.6","33.1","49.2","30.49","170","5.5","16.1","0.00","0.00"
"15:04:56","51.8","33.6","49.7","30.48","177","4.8","11.5","0.00","0.00"
"15:09:57","52.3","34.1","49.7","30.48","188","5.2","13","0.00","0.00"
"15:14:59","52.6","34.2","49.5","30.48","188","4.2","11.5","0.00","0.00"
"15:19:57","52.9","34.6","49.7","30.47","158","4","13","0.00","0.00"
"15:24:59","53","34","48.4","30.47","141","4.9","12.7","0.00","0.00"
"15:29:56","53.4","34.9","49.5","30.47","173","5.2","11.5","0.00","0.00"
"15:34:58","53.9","35","48.7","30.46","186","5.2","14","0.00","0.00"
"15:39:56","54.3","34.9","47.9","30.46","176","4.8","13.8","0.00","0.00"
"15:44:57","54.7","35.3","47.8","30.46","169","5.1","11.5","0.00","0.00"
"15:49:59","54.8","35.1","47.2","30.45","177","5.2","12","0.00","0.00"
"15:54:57","54.8","35.4","47.8","30.45","156","5.4","12","0.00","0.00"
"15:59:58","54.7","35.1","47.5","30.45","182","5.6","14","0.00","0.00"
"16:04:59","54.8","35.5","48","30.45","179","5.5","12.7","0.00","0.00"
"16:09:57","54.8","35.8","48.6","30.45","189","5","12","0.00","0.00"
"16:14:59","54.8","35.9","48.7","30.45","171","5.2","13","0.00","0.00"
"16:19:57","54.8","35.9","48.8","30.44","168","5.3","14","0.00","0.00"
"16:24:59","54.7","35.9","49","30.44","189","6.3","13","0.00","0.00"
"16:29:56","54.5","35.7","49","30.44","194","6.9","13","0.00","0.00"
"16:34:58","54.4","36.1","50","30.44","182","4.2","11.5","0.00","0.00"
"16:39:56","54.5","36.2","50","30.44","180","3.5","10.4","0.00","0.00"
"16:44:57","54.6","36.2","49.9","30.44","165","3.6","9.2","0.00","0.00"
"16:49:59","54.5","36.2","49.9","30.44","175","5.6","13","0.00","0.00"
"16:54:57","54.4","36.1","50.1","30.44","193","4.7","10.4","0.00","0.00"
"16:59:58","54.1","36.1","50.4","30.44","181","4.7","13","0.00","0.00"
"17:04:59","53.8","35.9","50.7","30.43","182","4.9","11","0.00","0.00"
"17:09:57","53.3","35.7","51.2","30.43","176","5.4","14","0.00","0.00"
"17:14:59","53","35.6","51.7","30.43","187","4.4","9.2","0.00","0.00"
"17:19:57","52.6","35.6","52.3","30.43","181","3.8","10.4","0.00","0.00"
"17:24:59","52.3","35.7","53","30.43","175","3.5","7","0.00","0.00"
"17:29:57","52.2","35.6","53","30.43","183","3.1","7","0.00","0.00"
"17:34:56","52","35.4","53","30.42","165","2","9","0.00","0.00"
"17:39:58","52","35.4","53","30.42","172","4.2","13","0.00","0.00"
"17:44:56","51.9","35.3","53","30.42","156","3.3","11.5","0.00","0.00"
"17:49:59","51.9","35.3","53","30.42","161","2.9","5.8","0.00","0.00"
"17:54:58","51.8","35.6","53.7","30.42","174","2","5","0.00","0.00"
"17:59:56","51.7","35.4","53.6","30.42","154","3","5","0.00","0.00"
"18:04:58","51.5","35.4","54","30.42","148","2","4","0.00","0.00"
"18:09:59","51.4","35.3","54.1","30.42","153","1.8","5","0.00","0.00"
"18:14:58","51.2","35.6","55","30.42","139","1.5","4.6","0.00","0.00"
"18:19:57","51","35.4","55","30.42","133","1.4","4","0.00","0.00"
"18:24:59","50.8","35.4","55.3","30.42","141","0.8","4","0.00","0.00"
"18:29:57","50.6","35.5","56","30.42","156","1.5","4","0.00","0.00"
"18:34:59","50.5","35.4","56","30.41","154","1.5","3.5","0.00","0.00"
"18:39:58","50.3","35.2","56.1","30.41","161","0.5","3.5","0.00","0.00"
"18:44:56","50","35.3","57","30.42","161","0.7","2.3","0.00","0.00"
"18:49:58","49.9","35.3","57","30.42","140","1.2","4","0.00","0.00"
"18:54:57","49.8","35.3","57.3","30.42","115","0.5","2.3","0.00","0.00"
"18:59:59","49.6","35.4","58","30.42","115","0.7","2.3","0.00","0.00"
"19:04:57","49.6","35.4","58","30.42","115","0.7","3.5","0.00","0.00"
"19:09:59","49.5","35.3","58","30.42","115","0.6","2.3","0.00","0.00"
"19:14:58","49.4","35.2","58","30.42","115","0.7","3.5","0.00","0.00"
"19:19:57","49.1","34.9","58","30.42","115","0","1.2","0.00","0.00"
"19:24:59","48.7","34.9","58.9","30.42","115","0","0","0.00","0.00"
"19:29:58","48.2","35","60","30.42","115","0","0","0.00","0.00"
"19:34:57","47.6","34.5","60.3","30.42","115","0","0","0.00","0.00"
"19:39:59","46.7","34.4","62.2","30.42","115","0","0","0.00","0.00"
"19:44:58","46","34.6","64.1","30.42","115","0","0","0.00","0.00"
"19:49:56","45.5","34.5","65.3","30.42","115","0","0","0.00","0.00"
"19:54:59","45.3","34.9","66.7","30.42","115","0","0","0.00","0.00"
"19:59:58","45","34.7","66.9","30.42","115","0","0","0.00","0.00"
"20:04:59","44.8","34.8","67.8","30.42","115","0","0","0.00","0.00"
"20:09:57","44.5","34.7","68.4","30.42","115","0","0","0.00","0.00"
"20:14:56","44.1","34.8","69.6","30.42","115","0","0","0.00","0.00"
"20:19:59","43.8","34.7","70.3","30.42","115","0","0","0.00","0.00"
"20:24:57","43.6","34.8","71","30.42","115","0","0","0.00","0.00"
"20:29:59","43.7","35.1","71.5","30.42","115","0.4","2.3","0.00","0.00"
"20:34:58","43.6","34.9","71.3","30.42","115","1.6","2.3","0.00","0.00"
"20:39:56","43.6","35","71.5","30.42","115","0.6","2.3","0.00","0.00"
"20:44:59","43.7","35.3","72","30.42","115","0","1.2","0.00","0.00"
"20:49:57","43.8","35.4","72.1","30.41","115","0","0","0.00","0.00"
"20:54:56","43.8","35.6","72.4","30.41","115","0.6","3.5","0.00","0.00"
"20:59:58","44","35.6","72","30.41","115","0.4","1.2","0.00","0.00"
"21:04:55","44.1","35.4","71.3","30.41","115","0.2","2.3","0.00","0.00"
"21:09:58","44.1","35.3","71","30.41","115","0","0","0.00","0.00"
"21:14:57","43.9","35.1","71","30.41","115","0","0","0.00","0.00"
"21:19:59","43.7","35.2","71.8","30.41","115","0","0","0.00","0.00"
"21:24:58","43.4","35","72","30.41","115","0","0","0.00","0.00"
"21:29:56","43.1","34.7","72","30.41","115","0","0","0.00","0.00"
"21:34:58","42.6","34.5","72.9","30.41","115","0","0","0.00","0.00"
"21:39:57","42.3","34.3","73.2","30.41","115","0","0","0.00","0.00"
"21:44:55","41.9","34.2","74","30.42","115","0","0","0.00","0.00"
"21:49:58","41.5","33.9","74.4","30.42","115","0","0","0.00","0.00"
"21:54:57","41.1","33.8","75","30.42","115","0","0","0.00","0.00"
"21:59:59","40.8","33.6","75.3","30.42","115","0","0","0.00","0.00"
"22:04:57","40.5","33.5","76","30.41","115","0","0","0.00","0.00"
"22:09:59","40.2","33.4","76.6","30.41","115","0","0","0.00","0.00"
"22:14:58","39.8","33.2","77","30.41","115","0","0","0.00","0.00"
"22:19:56","39.4","32.9","77.3","30.41","115","0","0","0.00","0.00"
"22:24:59","39","32.8","78.3","30.41","115","0","0","0.00","0.00"
"22:29:57","38.8","33","79.3","30.41","115","0.2","2.3","0.00","0.00"
"22:34:59","38.7","33.1","80","30.40","115","0.2","2.3","0.00","0.00"
"22:39:56","38.4","32.8","80","30.40","115","0.1","1.2","0.00","0.00"
"22:44:58","38.1","32.5","80.2","30.40","115","0","0","0.00","0.00"
"22:49:57","37.9","32.6","81","30.40","115","0","0","0.00","0.00"
"22:54:59","37.7","32.3","80.9","30.40","115","0","0","0.00","0.00"
"22:59:57","37.2","31.6","80.1","30.40","115","0","0","0.00","0.00"
"23:04:59","36.9","31.7","81.4","30.40","115","0","0","0.00","0.00"
"23:09:57","36.7","31.8","82.3","30.40","115","0","0","0.00","0.00"
"23:14:56","36.7","32.1","83.2","30.40","115","0","0","0.00","0.00"
"23:19:58","37.1","32.8","84.1","30.39","115","0.2","2.3","0.00","0.00"
"23:24:57","37.8","33.1","83","30.39","119","0.3","1.2","0.00","0.00"
"23:29:59","38.7","33.9","82.5","30.39","119","0.4","2.3","0.00","0.00"
"23:34:57","39.8","34.2","80.2","30.39","119","0.4","2.3","0.00","0.00"
"23:39:59","40.7","34.4","78","30.39","119","0.4","2.3","0.00","0.00"
"23:44:58","41.3","34.4","76.2","30.39","120","0.3","2.3","0.00","0.00"
"23:49:57","41.6","34.4","75.4","30.37","121","0.6","3","0.00","0.00"
"23:54:59","41.6","33.9","74","30.37","130","0.4","3.5","0.00","0.00"
"23:59:57","41.4","33.8","74.3","30.37","124","0.6","3.5","0.00","0.00"
